Hourly Weather Otrada

Today, 30 July, Friday

Time Temperature Precipitation Wind Pressure Humidity
00:00 +21°C° 0 mm 1 mps 745 mmHg 83%
01:00 +21°C° 0 mm 1 mps 745 mmHg 84%
02:00 +20°C° 0 mm 1 mps 745 mmHg 84%
03:00 +20°C° 0 mm 1 mps 745 mmHg 86%
04:00 +21°C° 0 mm 1 mps 745 mmHg 84%
05:00 +21°C° 0 mm 1 mps 744 mmHg 83%
06:00 +22°C° 0 mm 1 mps 744 mmHg 82%
07:00 +24°C° 0 mm 2 mps 744 mmHg 74%
08:00 +26°C° 0 mm 2 mps 744 mmHg 66%
09:00 +28°C° 0 mm 2 mps 744 mmHg 58%
10:00 +29°C° 0 mm 2 mps 744 mmHg 53%
11:00 +30°C° 0 mm 3 mps 744 mmHg 49%
12:00 +31°C° 0 mm 3 mps 744 mmHg 44%
13:00 +29°C° 1.1 mm 3 mps 743 mmHg 57%
14:00 +26°C° 1.1 mm 3 mps 743 mmHg 70%
15:00 +24°C° 1.1 mm 3 mps 742 mmHg 83%
16:00 +24°C° 1.2 mm 3 mps 742 mmHg 84%
17:00 +24°C° 1.2 mm 2 mps 742 mmHg 84%
18:00 +24°C° 1.2 mm 1 mps 742 mmHg 84%
19:00 +23°C° 0 mm 1 mps 742 mmHg 87%
20:00 +22°C° 0 mm 1 mps 742 mmHg 90%
21:00 +21°C° 0 mm 1 mps 743 mmHg 93%
22:00 +20°C° 0 mm 2 mps 743 mmHg 94%
23:00 +20°C° 0 mm 3 mps 743 mmHg 95%

Tomorrow, 31 July, Saturday

Time Temperature Precipitation Wind Pressure Humidity
00:00 +20°C° 0 mm 4 mps 743 mmHg 95%
01:00 +19°C° 0 mm 4 mps 743 mmHg 96%
02:00 +19°C° 0 mm 4 mps 743 mmHg 96%
03:00 +19°C° 0 mm 4 mps 743 mmHg 96%
04:00 +18°C° 0 mm 3 mps 743 mmHg 94%
05:00 +18°C° 0 mm 3 mps 744 mmHg 93%
06:00 +18°C° 0 mm 3 mps 744 mmHg 91%
07:00 +20°C° 0 mm 4 mps 744 mmHg 80%
08:00 +22°C° 0 mm 4 mps 745 mmHg 69%
09:00 +25°C° 0 mm 5 mps 745 mmHg 58%
10:00 +26°C° 0 mm 6 mps 745 mmHg 52%
11:00 +27°C° 0 mm 6 mps 745 mmHg 46%
12:00 +28°C° 0 mm 7 mps 745 mmHg 40%
13:00 +29°C° 0 mm 7 mps 745 mmHg 38%
14:00 +29°C° 0 mm 7 mps 745 mmHg 36%
15:00 +30°C° 0 mm 7 mps 745 mmHg 35%
16:00 +29°C° 0 mm 6 mps 745 mmHg 38%
17:00 +29°C° 0 mm 5 mps 745 mmHg 41%
18:00 +28°C° 0 mm 5 mps 746 mmHg 44%
19:00 +26°C° 0 mm 4 mps 746 mmHg 50%
20:00 +24°C° 0 mm 3 mps 746 mmHg 57%
21:00 +21°C° 0 mm 2 mps 746 mmHg 63%
22:00 +20°C° 0 mm 2 mps 747 mmHg 64%
23:00 +20°C° 0 mm 2 mps 747 mmHg 64%

Day after tomorrow, 1 August, Sunday

Time Temperature Precipitation Wind Pressure Humidity
00:00 +19°C° 0 mm 3 mps 747 mmHg 65%
01:00 +19°C° 0 mm 2 mps 747 mmHg 67%
02:00 +18°C° 0 mm 2 mps 748 mmHg 69%
03:00 +18°C° 0 mm 2 mps 748 mmHg 70%
04:00 +18°C° 0 mm 2 mps 748 mmHg 70%
05:00 +18°C° 0 mm 2 mps 748 mmHg 70%
06:00 +18°C° 0 mm 2 mps 749 mmHg 70%
07:00 +21°C° 0 mm 2 mps 749 mmHg 64%
08:00 +24°C° 0 mm 2 mps 749 mmHg 57%
09:00 +26°C° 0 mm 3 mps 749 mmHg 50%
10:00 +28°C° 0 mm 3 mps 749 mmHg 45%
11:00 +29°C° 0 mm 3 mps 749 mmHg 41%
12:00 +31°C° 0 mm 3 mps 749 mmHg 36%
13:00 +31°C° 0 mm 3 mps 749 mmHg 35%
14:00 +33°C° 0 mm 3 mps 748 mmHg 34%
15:00 +34°C° 0 mm 3 mps 748 mmHg 32%
16:00 +34°C° 0 mm 3 mps 748 mmHg 33%
17:00 +34°C° 0 mm 3 mps 747 mmHg 34%
18:00 +33°C° 0 mm 3 mps 747 mmHg 35%
19:00 +31°C° 0 mm 3 mps 747 mmHg 38%
20:00 +29°C° 0 mm 3 mps 747 mmHg 41%
21:00 +27°C° 0 mm 4 mps 747 mmHg 43%
22:00 +27°C° 0 mm 3 mps 747 mmHg 45%
23:00 +26°C° 0 mm 3 mps 747 mmHg 47%

2 August, Monday

Time Temperature Precipitation Wind Pressure Humidity
00:00 +25°C° 0 mm 3 mps 747 mmHg 49%
01:00 +25°C° 0 mm 3 mps 747 mmHg 51%
02:00 +24°C° 0 mm 3 mps 747 mmHg 53%
03:00 +22°C° 0 mm 3 mps 747 mmHg 55%
04:00 +22°C° 0 mm 3 mps 747 mmHg 59%
05:00 +22°C° 0 mm 3 mps 747 mmHg 63%
06:00 +22°C° 0 mm 3 mps 747 mmHg 67%
07:00 +25°C° 0 mm 3 mps 747 mmHg 61%
08:00 +28°C° 0 mm 4 mps 747 mmHg 54%
09:00 +30°C° 0 mm 5 mps 747 mmHg 48%
10:00 +33°C° 0 mm 5 mps 746 mmHg 43%
11:00 +34°C° 0 mm 5 mps 746 mmHg 37%
12:00 +36°C° 0 mm 6 mps 746 mmHg 32%
13:00 +35°C° 0.2 mm 6 mps 745 mmHg 37%
14:00 +33°C° 0.2 mm 5 mps 745 mmHg 42%
15:00 +32°C° 0.2 mm 5 mps 744 mmHg 48%
16:00 +32°C° 0.1 mm 5 mps 744 mmHg 46%
17:00 +32°C° 0.1 mm 5 mps 744 mmHg 45%
18:00 +32°C° 0.1 mm 5 mps 743 mmHg 43%
19:00 +29°C° 0.1 mm 4 mps 743 mmHg 48%
20:00 +27°C° 0.1 mm 4 mps 743 mmHg 53%
21:00 +25°C° 0.1 mm 4 mps 744 mmHg 59%
22:00 +23°C° 0.3 mm 4 mps 744 mmHg 66%
23:00 +22°C° 0.3 mm 4 mps 744 mmHg 73%

3 August, Tuesday

Time Temperature Precipitation Wind Pressure Humidity
00:00 +21°C° 0.3 mm 3 mps 744 mmHg 80%
01:00 +21°C° 0.2 mm 3 mps 744 mmHg 83%
02:00 +21°C° 0.2 mm 4 mps 744 mmHg 87%
03:00 +20°C° 0.2 mm 4 mps 744 mmHg 91%
04:00 +20°C° 0 mm 4 mps 744 mmHg 90%
05:00 +21°C° 0 mm 4 mps 744 mmHg 89%
06:00 +21°C° 0 mm 4 mps 744 mmHg 89%
07:00 +21°C° 0.1 mm 4 mps 744 mmHg 89%
08:00 +21°C° 0.1 mm 3 mps 745 mmHg 89%
09:00 +21°C° 0.1 mm 3 mps 745 mmHg 89%
10:00 +21°C° 0.8 mm 3 mps 745 mmHg 90%
11:00 +20°C° 0.8 mm 3 mps 746 mmHg 90%
12:00 +20°C° 0.8 mm 2 mps 746 mmHg 91%
13:00 +21°C° 0.1 mm 3 mps 746 mmHg 82%
14:00 +24°C° 0.1 mm 3 mps 746 mmHg 74%
15:00 +25°C° 0.1 mm 3 mps 746 mmHg 65%
16:00 +25°C° 0.1 mm 3 mps 746 mmHg 63%
17:00 +25°C° 0.1 mm 3 mps 747 mmHg 61%
18:00 +25°C° 0.1 mm 2 mps 747 mmHg 60%
19:00 +24°C° 0 mm 2 mps 747 mmHg 63%
20:00 +21°C° 0 mm 2 mps 747 mmHg 66%
21:00 +20°C° 0 mm 2 mps 747 mmHg 69%
22:00 +20°C° 0.1 mm 2 mps 748 mmHg 72%
23:00 +19°C° 0.1 mm 2 mps 748 mmHg 74%

4 August, Wednesday

Time Temperature Precipitation Wind Pressure Humidity
00:00 +19°C° 0.1 mm 2 mps 748 mmHg 77%
01:00 +18°C° 0 mm 2 mps 748 mmHg 80%
02:00 +17°C° 0 mm 2 mps 749 mmHg 82%
03:00 +17°C° 0 mm 2 mps 749 mmHg 85%
04:00 +17°C° 0 mm 2 mps 749 mmHg 84%
05:00 +17°C° 0 mm 2 mps 749 mmHg 83%
06:00 +17°C° 0 mm 2 mps 750 mmHg 82%
07:00 +19°C° 0 mm 2 mps 750 mmHg 73%
08:00 +21°C° 0 mm 2 mps 750 mmHg 64%
09:00 +24°C° 0 mm 2 mps 750 mmHg 55%
10:00 +25°C° 0 mm 3 mps 750 mmHg 49%
11:00 +26°C° 0 mm 3 mps 750 mmHg 44%
12:00 +27°C° 0 mm 3 mps 751 mmHg 39%
13:00 +28°C° 0 mm 3 mps 750 mmHg 37%
14:00 +28°C° 0 mm 3 mps 750 mmHg 36%
15:00 +28°C° 0 mm 2 mps 750 mmHg 35%
16:00 +27°C° 0 mm 3 mps 751 mmHg 40%
17:00 +25°C° 0 mm 3 mps 751 mmHg 45%
18:00 +23°C° 0 mm 4 mps 751 mmHg 51%
19:00 +22°C° 0 mm 3 mps 751 mmHg 55%
20:00 +21°C° 0 mm 3 mps 751 mmHg 59%
21:00 +20°C° 0 mm 2 mps 752 mmHg 64%
22:00 +19°C° 0 mm 2 mps 752 mmHg 66%
23:00 +19°C° 0 mm 1 mps 752 mmHg 69%
Show more